User: anonymous   Login
Location: Unspecified
(0.0000°N, 0.0000°E)
Time: 19:46:24
(UTC+00:00)
Language:

TIANWANG 1C (TW-1C) - Orbit

View from above orbital plane
View from above orbital plane
View from above satellite
View from above satellite

Ground track
Ground track

The orbit data is extracted from the following two-line orbital elements,

1 40926U 15051B   18351.49520389  .00007009  00000-0  11763-3 0  9998
2 40926  97.1628  33.1245 0008409 341.6882 123.9722 15.52080053181710
Epoch (UTC): 17 December 2018 11:53:05
Eccentricity: 0.0008409
inclination: 97.1628°
perigee height: 405 km
apogee height: 416 km
right ascension of ascending node: 33.1245°
argument of perigee: 341.6882°
revolutions per day: 15.52080053
mean anomaly at epoch: 123.9722°
orbit number at epoch: 18171

The dashed part of the orbit path shows where the satellite is in the earth's shadow,  

DLR